Flag for U.S.A. Weather past 2 weeks in Paramus, New Jersey, U.S.A.

Now
64 °F

Clear.


Feels Like: 64 °F
Forecast: 59 / 85 °F
Wind: No wind

Location: Teterboro Airport

Current Time: Aug 29, 2015 at 3:55:20 AM

Latest Report: Aug 29, 2015 at 2:51 AM


Visibility: 10 mi

Pressure: 30.18 "Hg

Humidity: 68%

Dew point: 53 °F

Location of ParamusLocation

Historic Weather in Paramus — Graph

°F

Paramus temperature yesterday

Maximum temperature yesterday: 80 °F (at 2:51 PM)
Minimum temperature yesterday: 61 °F (at 6:51 AM)
Average temperature yesterday: 71 °F

Past Weeks' High & Low Weather Summary

 TemperatureHumidityPressure
High94 °F (Aug 16, 2:51 PM)85% (Aug 18, 7:51 AM)30.19 "Hg (Aug 18, 7:51 AM)
Low61 °F (Aug 28, 6:51 AM)30% (Aug 15, 2:51 PM)29.78 "Hg (Aug 25, 4:51 PM)
Average78 °F56%30.01 "Hg
* Reported Aug 14 2:51 AM — Aug 29 2:51 AM, Paramus, Weather by CustomWeather, © 2015

Note: Actual official high and low records may vary slightly from our data, if they occured in-between our weather recording intervals... More about our weather records

Advertising

Paramus weather history for previous 24 hours

 ConditionsComfort  
Time TempWeatherWind HumidityBarometerVisibility
2:51 AM
Sat, Aug 29
64 °FClear.No wind68%30.18 "Hg10 mi
1:51 AM64 °FClear.3 mph68%30.18 "Hg10 mi
12:51 AM67 °FClear.No wind61%30.19 "Hg10 mi
11:51 PM
Fri, Aug 28
69 °FClear.No wind55%30.19 "Hg10 mi
10:51 PM71 °FClear.No wind49%30.19 "Hg10 mi
9:51 PM72 °FClear.6 mph48%30.18 "Hg10 mi
8:51 PM73 °FClear.3 mph46%30.16 "Hg10 mi
7:51 PM75 °FSunny.5 mph43%30.14 "Hg10 mi
6:51 PM78 °FPassing clouds.7 mph37%30.12 "Hg10 mi
5:51 PM80 °FSunny.7 mph34%30.11 "Hg10 mi
4:51 PM80 °FSunny.No wind34%30.11 "Hg10 mi
3:51 PM80 °FSunny.9 mph34%30.12 "Hg10 mi
2:51 PM80 °FPassing clouds.5 mph34%30.13 "Hg10 mi
1:51 PM79 °FScattered clouds.7 mph36%30.14 "Hg10 mi
12:51 PM78 °FScattered clouds.9 mph36%30.16 "Hg10 mi
11:51 AM75 °FScattered clouds.7 mph39%30.18 "Hg10 mi
10:51 AM75 °FSunny.7 mph43%30.18 "Hg10 mi
9:51 AM72 °FSunny.6 mph49%30.18 "Hg10 mi
8:51 AM69 °FSunny.3 mph57%30.17 "Hg10 mi
7:51 AM64 °FSunny.3 mph70%30.17 "Hg10 mi
6:51 AM61 °FClear.No wind75%30.15 "Hg10 mi
5:51 AM62 °FClear.No wind73%30.14 "Hg10 mi
4:51 AM62 °FClear.No wind73%30.13 "Hg10 mi
3:51 AM63 °FClear.No wind70%30.13 "Hg10 mi
Weather by CustomWeather, © 2015

See weather overviewHow to use our weather pages